Content
SEND FEEDBACK

Daily
Averages
Monthly
Summary
United States of America

DUNSMUIR, CALIFORNIA


Home > North America > United States > California
Elevation: 3289 feet     Latitude: 41 12N     Longitude: 122 16W

WEATHER
 
SELECT A DAY
Number of Records: 231,591;   Date Range: 1/1/95 - 9/18/14
 
SHARE

PRINT THIS DATA

[ ← Previous Day ]
WEATHER ALMANAC - FEBRUARY 8, 2014
[ Next Day → ]
[ °C ]   °F
Weather ElementAverageHighLow
Temperature42.7 °F46 °F (3:56 pm)39.9 °F (1:56 am)
Dewpoint39.1 °F41 °F (2:56 pm)37 °F (1:56 am)
Humidity87.4 %93 % (2:09 am)80 % (11:56 pm)
Barometer30.01 in30.10 in (10:56 pm)29.93 in (2:09 am)
Wind Speed5.3 mph9.2 mph (11:56 pm)
Wind Gust23 mph (6:56 pm)
Weather ElementAverage
Visibility9.6 mi
Wind DirectionENE (70.5 °)

Weather ElementTotal
Precipitation0.37 in
Heating Degree Days22.1 (Base 65)
Averaged from 38 records on February 8, 2014
WEATHER CONDITIONS BREAKOUT
WIND DIRECTION BREAKOUT
WEATHER BY HOUR - FEBRUARY 8, 2014
[ °C ]   °F
Local TimeTemperatureDewpointHumidityBarometerVisibilityWind DirectionWind SpeedGust SpeedPrecipitationEventsConditions
1:56 AM39.9 °F37.0 °F89 %30.01 in7.0 miESE (110°)5.8 mph0.02 inRainLight Rain
2:09 AM39.9 °F37.9 °F93 %29.93 in10.0 miVariable5.8 mph0.00 inRainLight Rain
2:56 AM41.0 °F37.9 °F89 %30.02 in9.0 miVariable5.8 mph0.01 inRainLight Rain
3:56 AM41.0 °F37.9 °F89 %30.04 in8.0 miEast (100°)5.8 mph0.02 inRainLight Rain
4:56 AM41.0 °F37.9 °F89 %30.05 in9.0 miESE (120°)4.6 mph0.01 inRainLight Rain
5:56 AM41.0 °F37.9 °F89 %30.05 in10.0 miVariable6.9 mph0.00 inOvercast
6:56 AM41.0 °F37.9 °F89 %30.06 in10.0 miESE (120°)4.6 mph0.01 inRainLight Rain
7:17 AM41.0 °F37.9 °F89 %29.98 in10.0 miVariable5.8 mph0.00 inRainLight Rain
7:35 AM41.0 °F37.9 °F89 %29.97 in10.0 miVariable4.6 mph0.00 inOvercast
7:45 AM41.0 °F37.9 °F89 %29.97 in10.0 miESE (110°)4.6 mph0.00 inOvercast
7:56 AM41.0 °F37.9 °F89 %30.03 in10.0 miSE (130°)5.8 mph0.00 inOvercast
8:11 AM41.0 °F39.0 °F93 %29.96 in10.0 miSE (140°)4.6 mph0.00 inRainLight Rain
8:56 AM42.1 °F39.0 °F89 %30.04 in9.0 miSE (130°)6.9 mph0.01 inRainLight Rain
9:56 AM42.1 °F39.0 °F89 %30.04 in7.0 miESE (110°)5.8 mph0.02 inRainLight Rain
10:41 AM42.1 °F37.9 °F85 %29.97 in10.0 miVariable4.6 mph0.02 inRainLight Rain
10:56 AM42.1 °F37.9 °F85 %30.04 in10.0 miVariable3.5 mph0.03 inRainLight Rain
11:12 AM42.1 °F37.9 °F85 %29.96 in10.0 miESE (110°)5.8 mph0.01 inRainLight Rain
11:56 AM42.1 °F39.0 °F89 %30.03 in10.0 miVariable4.6 mph0.03 inRainLight Rain
12:56 PM42.1 °F39.0 °F89 %30.01 in10.0 miVariable4.6 mph0.05 inRainLight Rain
1:56 PM42.1 °F39.0 °F89 %30.02 in6.0 miEast (100°)3.5 mph0.07 inRainLight Rain
2:34 PM44.1 °F39.9 °F85 %29.95 in8.0 miEast (100°)5.8 mph0.03 inRainLight Rain
2:56 PM45.0 °F41.0 °F86 %30.01 in10.0 miEast (90°)8.1 mph0.03 inOvercast
3:56 PM46.0 °F41.0 °F83 %30.00 in10.0 miVariable4.6 mphMostly Cloudy
4:10 PM45.0 °F41.0 °F86 %29.94 in10.0 miVariable4.6 mphScattered Clouds
4:21 PM45.0 °F39.9 °F82 %29.95 in10.0 miESE (110°)4.6 mphScattered Clouds
4:56 PM45.0 °F39.9 °F82 %30.01 in10.0 miESE (120°)3.5 mphMostly Cloudy
5:56 PM44.1 °F39.9 °F85 %30.00 in10.0 miESE (110°)6.9 mphScattered Clouds
6:07 PM43.0 °F39.9 °F89 %29.95 in10.0 miVariable4.6 mphMostly Cloudy
6:18 PM43.0 °F39.9 °F89 %29.93 in10.0 miESE (110°)8.1 mphOvercast
6:56 PM44.1 °F39.9 °F85 %30.00 in10.0 miESE (120°)5.8 mph23.0 mphOvercast
7:12 PM44.1 °F39.9 °F85 %29.96 in10.0 miESE (120°)5.8 mphOvercast
7:56 PM43.0 °F39.9 °F89 %30.02 in10.0 miESE (110°)6.9 mphMostly Cloudy
8:43 PM43.0 °F41.0 °F93 %29.99 in10.0 miESE (120°)3.5 mphOvercast
8:56 PM44.1 °F41.0 °F89 %30.06 in10.0 miVariable5.8 mphMostly Cloudy
9:18 PM43.0 °F39.9 °F89 %30.01 in10.0 miESE (110°)3.5 mphScattered Clouds
9:56 PM44.1 °F39.9 °F85 %30.08 in10.0 miEast (90°)5.8 mphClear
10:56 PM44.1 °F39.9 °F85 %30.10 in10.0 miCalmOvercast
11:56 PM45.0 °F39.0 °F80 %30.10 in10.0 miEast (90°)9.2 mphMostly Cloudy
Hourly data recorded from KMHS, located miles away from Dunsmuir, California







STORIES FROM OUR PARTNERS